| time (UTC) | temp C | wind direction | speed KPH | gust KPH | rain 1hr cm | rain 24hr cm | rain mn cm | humidity % | barometer mb |
| 20260509204502 | 10 | 130 | 1.6 | 0.0 | 0.00 | 0.00 | 0.00 | 72 | 1013.4 |
| 20260509203002 | 10 | 140 | 1.6 | 0.0 | 0.00 | 0.00 | 0.00 | 72 | 1013.4 |
| 20260509201502 | 12 | 100 | 4.8 | 0.0 | 0.00 | 0.00 | 0.00 | 65 | 1013.3 |
| 20260509200002 | 12 | 100 | 4.8 | 0.0 | 0.00 | 0.00 | 0.00 | 65 | 1013.3 |
| 20260509194502 | 12 | 100 | 4.8 | 0.0 | 0.00 | 0.00 | 0.00 | 61 | 1013.1 |
| 20260509193002 | 12 | 110 | 4.8 | 0.0 | 0.00 | 0.00 | 0.00 | 61 | 1013.1 |
| 20260509191502 | 13 | 110 | 4.8 | 0.0 | 0.00 | 0.00 | 0.00 | 58 | 1013.0 |
| 20260509190003 | 13 | 120 | 3.2 | 0.0 | 0.00 | 0.00 | 0.00 | 58 | 1013.0 |
| 20260509184502 | 14 | 120 | 4.8 | 0.0 | 0.00 | 0.00 | 0.00 | 57 | 1013.1 |
| 20260509183002 | 14 | 120 | 4.8 | 0.0 | 0.00 | 0.00 | 0.00 | 57 | 1013.1 |
| 20260509181502 | 15 | 110 | 9.7 | 0.0 | 0.00 | 0.00 | 0.00 | 55 | 1013.1 |
| 20260509180002 | 15 | 110 | 9.7 | 0.0 | 0.00 | 0.00 | 0.00 | 55 | 1013.1 |
| 20260509174502 | 15 | 110 | 9.7 | 0.0 | 0.00 | 0.00 | 0.00 | 52 | 1013.3 |
| 20260509173002 | 15 | 110 | 11.3 | 0.0 | 0.00 | 0.00 | 0.00 | 52 | 1013.3 |
| 20260509171502 | 15 | 110 | 11.3 | 0.0 | 0.00 | 0.00 | 0.00 | 51 | 1013.6 |
| 20260509170002 | 15 | 100 | 9.7 | 0.0 | 0.00 | 0.00 | 0.00 | 51 | 1013.6 |
| 20260509164503 | 16 | 100 | 9.7 | 0.0 | 0.00 | 0.00 | 0.00 | 49 | 1013.9 |
| 20260509163002 | 16 | 60 | 6.4 | 0.0 | 0.00 | 0.00 | 0.00 | 49 | 1013.9 |
| 20260509161502 | 16 | 100 | 3.2 | 0.0 | 0.00 | 0.00 | 0.00 | 49 | 1014.2 |
| 20260509160003 | 16 | 100 | 3.2 | 0.0 | 0.00 | 0.00 | 0.00 | 49 | 1014.2 |
| 20260509154502 | 15 | 100 | 3.2 | 0.0 | 0.00 | 0.00 | 0.00 | 49 | 1014.3 |
| 20260509153002 | 15 | 90 | 6.4 | 0.0 | 0.00 | 0.00 | 0.00 | 49 | 1014.3 |
| 20260509151503 | 15 | 90 | 6.4 | 0.0 | 0.00 | 0.00 | 0.00 | 49 | 1014.4 |
| 20260509150002 | 15 | 90 | 3.2 | 0.0 | 0.00 | 0.00 | 0.00 | 49 | 1014.4 |
| 20260509144502 | 15 | 90 | 3.2 | 0.0 | 0.00 | 0.00 | 0.00 | 55 | 1014.6 |
| 20260509143002 | 15 | 70 | 4.8 | 0.0 | 0.00 | 0.00 | 0.00 | 55 | 1014.6 |
| 20260509141502 | 15 | 70 | 4.8 | 0.0 | 0.00 | 0.00 | 0.00 | 49 | 1014.8 |
| 20260509140002 | 15 | 60 | 4.8 | 0.0 | 0.00 | 0.00 | 0.00 | 49 | 1014.8 |
| 20260509134502 | 16 | 190 | 8.0 | 0.0 | 0.00 | 0.00 | 0.00 | 43 | 1015.1 |
| 20260509133003 | 16 | 190 | 8.0 | 0.0 | 0.00 | 0.00 | 0.00 | 43 | 1015.1 |
| 20260509131502 | 15 | 70 | 3.2 | 0.0 | 0.00 | 0.00 | 0.00 | 49 | 1015.3 |
| 20260509130002 | 15 | 70 | 3.2 | 0.0 | 0.00 | 0.00 | 0.00 | 49 | 1015.3 |
| 20260509124502 | 15 | 70 | 3.2 | 0.0 | 0.00 | 0.00 | 0.00 | 52 | 1015.4 |
| 20260509123002 | 15 | 40 | 6.4 | 0.0 | 0.00 | 0.00 | 0.00 | 52 | 1015.4 |
| 20260509121502 | 15 | 40 | 6.4 | 0.0 | 0.00 | 0.00 | 0.00 | 49 | 1015.5 |
| 20260509120002 | 15 | 40 | 3.2 | 0.0 | 0.00 | 0.00 | 0.00 | 49 | 1015.5 |
| 20260509114502 | 14 | 60 | 4.8 | 0.0 | 0.00 | 0.00 | 0.00 | 49 | 1015.7 |
| 20260509113003 | 14 | 60 | 4.8 | 0.0 | 0.00 | 0.00 | 0.00 | 49 | 1015.7 |
| 20260509111502 | 15 | 60 | 4.8 | 0.0 | 0.00 | 0.00 | 0.00 | 48 | 1015.8 |
| 20260509110002 | 15 | 280 | 4.8 | 0.0 | 0.00 | 0.00 | 0.00 | 48 | 1015.8 |
| 20260509104502 | 15 | 280 | 4.8 | 0.0 | 0.00 | 0.00 | 0.00 | 53 | 1015.9 |
| 20260509103002 | 15 | 280 | 4.8 | 0.0 | 0.00 | 0.00 | 0.00 | 53 | 1015.9 |
| 20260509101502 | 13 | 280 | 4.8 | 0.0 | 0.00 | 0.00 | 0.00 | 52 | 1016.1 |
| 20260509100002 | 13 | 40 | 4.8 | 0.0 | 0.00 | 0.00 | 0.00 | 52 | 1016.1 |
| 20260509094502 | 13 | 40 | 4.8 | 0.0 | 0.00 | 0.00 | 0.00 | 59 | 1016.1 |
| 20260509093002 | 13 | 30 | 4.8 | 0.0 | 0.00 | 0.00 | 0.00 | 59 | 1016.1 |
| 20260509091503 | 12 | 40 | 4.8 | 0.0 | 0.00 | 0.00 | 0.00 | 66 | 1016.2 |
| 20260509090002 | 12 | 40 | 4.8 | 0.0 | 0.00 | 0.00 | 0.00 | 66 | 1016.2 |
| 20260509084502 | 12 | 30 | 4.8 | 0.0 | 0.00 | 0.00 | 0.00 | 65 | 1016.1 |
| 20260509083002 | 12 | 30 | 4.8 | 0.0 | 0.00 | 0.00 | 0.00 | 65 | 1016.1 |
| 20260509081502 | 11 | 30 | 4.8 | 0.0 | 0.00 | 0.00 | 0.00 | 69 | 1016.1 |
| 20260509080002 | 11 | 80 | 4.8 | 0.0 | 0.00 | 0.00 | 0.00 | 69 | 1016.1 |
| 20260509074502 | 10 | 80 | 4.8 | 0.0 | 0.00 | 0.00 | 0.00 | 73 | 1016.0 |
| 20260509073002 | 10 | 50 | 4.8 | 0.0 | 0.00 | 0.00 | 0.00 | 73 | 1016.0 |
| 20260509071502 | 10 | 50 | 4.8 | 0.0 | 0.00 | 0.00 | 0.00 | 71 | 1015.9 |
| 20260509070002 | 10 | 350 | 1.6 | 0.0 | 0.00 | 0.00 | 0.00 | 71 | 1015.9 |
| 20260509064502 | 10 | 350 | 1.6 | 0.0 | 0.00 | 0.00 | 0.00 | 74 | 1015.9 |
| 20260509063002 | 10 | 50 | 1.6 | 0.0 | 0.00 | 0.00 | 0.00 | 74 | 1015.9 |
| 20260509061502 | 9 | 30 | 0.0 | 0.0 | 0.00 | 0.00 | 0.00 | 78 | 1015.8 |
| 20260509060002 | 9 | 30 | 0.0 | 0.0 | 0.00 | 0.00 | 0.00 | 78 | 1015.8 |
| 20260509054502 | 9 | 30 | 0.0 | 0.0 | 0.00 | 0.00 | 0.00 | 77 | 1015.7 |
| 20260509053002 | 9 | 270 | 1.6 | 0.0 | 0.00 | 0.00 | 0.00 | 77 | 1015.7 |
| 20260509051502 | 8 | 60 | 3.2 | 0.0 | 0.00 | 0.00 | 0.00 | 81 | 1015.4 |
| 20260509050002 | 8 | 60 | 3.2 | 0.0 | 0.00 | 0.00 | 0.00 | 81 | 1015.4 |
| 20260509044502 | 8 | 60 | 3.2 | 0.0 | 0.00 | 0.00 | 0.00 | 79 | 1015.5 |
| 20260509043002 | 8 | 90 | 4.8 | 0.0 | 0.00 | 0.00 | 0.00 | 79 | 1015.5 |
| 20260509041502 | 8 | 80 | 3.2 | 0.0 | 0.00 | 0.00 | 0.00 | 78 | 1015.5 |
| 20260509040002 | 8 | 80 | 3.2 | 0.0 | 0.00 | 0.00 | 0.00 | 78 | 1015.5 |
| 20260509034502 | 8 | 70 | 3.2 | 0.0 | 0.00 | 0.00 | 0.00 | 77 | 1015.6 |
| 20260509033002 | 8 | 70 | 3.2 | 0.0 | 0.00 | 0.00 | 0.00 | 77 | 1015.6 |
| 20260509031502 | 8 | 50 | 3.2 | 0.0 | 0.00 | 0.00 | 0.00 | 74 | 1015.5 |
| 20260509030004 | 8 | 50 | 3.2 | 0.0 | 0.00 | 0.00 | 0.00 | 74 | 1015.5 |